Location: Dammartin
(48.9032°N, 1.6195°E)
Time: 07:36:04
(UTC+00:00)

BEESAT - Visible Passes

Search period start: 06 December 2023 00:00
Search period end: 16 December 2023 00:00
Orbit: 696 x 703 km, 98.5° (Epoch: 05 December)

Date Brightness Start Highest point End Pass type
(mag) Time Alt. Az. Time Alt. Az. Time Alt. Az.
08 Dec ? 06:52:47 10° E 06:55:02 13° NE 06:57:17 10° NNE visible
10 Dec ? 06:40:25 10° ENE 06:41:02 10° NE 06:41:40 10° NE visible
15 Dec ? 06:51:58 10° E 06:54:03 13° NE 06:56:09 10° NNE visible
